Location: Doverdale
(52.2833°N, 2.2000°W)
Time: 10:52:05
(UTC+00:00)

Okean 3 Rocket - Pass Details

Date: 29 October 2020
Orbit: 614 x 645 km, 82.5° (Epoch: 24 November)

Event Time Altitude Azimuth Distance (km) Brightness Sun altitude
Rises 19:01:43 0° 352° (N) 2,900 7.2 -21.4°
Reaches altitude 10° 19:04:01 10° 358° (N) 1,989 6.2 -21.8°
Enters shadow 19:06:51 34° 23° (NNE) 1,015 4.5 -22.2°
